This is the latest recevied weather packets stored in our database for station/object EA1HTW-1. If no packets are shown the sender has not sent any weather packets the latest 10 day(s).
| Time | Temp. | Humidity | Pressure | Rain* | Wind** | Luminosity | Snow |
|---|---|---|---|---|---|---|---|
| 1778137771 | 7.22° C | 97% | 983.1 hPa | 0 mm | - | - | - |
| 1778137172 | 7.22° C | 97% | 983.1 hPa | 0 mm | - | - | - |
| 1778135969 | 6.67° C | 97% | 983 hPa | 0 mm | - | - | - |
| 1778134772 | 6.11° C | 97% | 983.2 hPa | 0 mm | - | - | - |
| 1778134170 | 6.11° C | 97% | 983.2 hPa | 0 mm | - | - | - |
| 1778133569 | 6.11° C | 97% | 983.2 hPa | 0 mm | - | - | - |
| 1778132370 | 6.11° C | 97% | 983.1 hPa | 0 mm | - | - | - |
| 1778131769 | 6.11° C | 97% | 983 hPa | 0 mm | - | - | - |
| 1778131172 | 6.67° C | 96% | 982.9 hPa | 0 mm | - | - | - |
| 1778130570 | 6.67° C | 96% | 983 hPa | 0 mm | - | - | - |
| 1778129971 | 6.67° C | 97% | 983 hPa | 0 mm | - | - | - |
| 1778129372 | 6.67° C | 96% | 983.1 hPa | 0 mm | - | - | - |
| 1778128771 | 7.22° C | 96% | 983.1 hPa | 0 mm | - | - | - |
| 1778128170 | 7.22° C | 96% | 983.2 hPa | 0 mm | - | - | - |
| 1778127572 | 7.78° C | 96% | 983.3 hPa | 0 mm | - | - | - |
| 1778126970 | 7.22° C | 96% | 983.6 hPa | 0 mm | - | - | - |
| 1778125772 | 7.22° C | 96% | 983.4 hPa | 0 mm | - | - | - |
| 1778125171 | 7.22° C | 96% | 983.3 hPa | 0 mm | - | - | - |
| 1778123971 | 7.22° C | 96% | 983.4 hPa | 0 mm | - | - | - |
| 1778123371 | 6.67° C | 96% | 983.4 hPa | 0 mm | - | - | - |
| 1778122171 | 6.67° C | 96% | 983.4 hPa | 0 mm | - | - | - |
| 1778121571 | 6.67° C | 96% | 983.4 hPa | 0 mm | - | - | - |
| 1778120371 | 6.11° C | 95% | 983.4 hPa | 0 mm | - | - | - |
| 1778119771 | 6.11° C | 95% | 983.7 hPa | 0 mm | - | - | - |
| 1778118570 | 6.11° C | 95% | 983.5 hPa | 0 mm | - | - | - |
* Rain latest hour (hover to see other rain measurements)
** Current wind speed in m/s (hover to see current wind gust speed)